KD5UIG Weather Reports


Display with metric or nautical units.
time (UTC)temp
F
wind
direction
speed
MPH
gust
MPH
rain 1hr
in
rain 24hr
in
rain mn
in
humidity
%
barometer
mb
20260905133555 82 0 0.0 2.0 0.00 0.00 0.00 77 1014.8
20260905133103 81 196 0.0 2.0 0.00 0.00 0.00 79 1014.8
20260905132556 80 0 0.0 1.0 0.00 0.00 0.00 80 1014.9
20260905132056 80 0 0.0 0.0 0.00 0.00 0.00 81 1014.8
20260905131606 79 0 0.0 0.0 0.00 0.00 0.00 81 1014.7
20260905131100 79 0 0.0 0.0 0.00 0.00 0.00 81 1014.7
20260905130559 78 0 0.0 0.0 0.00 0.00 0.00 82 1014.6
20260905130112 78 0 0.0 0.0 0.00 0.00 0.00 82 1014.4
20260905125556 77 0 0.0 0.0 0.00 0.00 0.00 81 1014.4
20260905125056 77 0 0.0 0.0 0.00 0.00 0.00 81 1014.4
20260905124601 77 0 0.0 0.0 0.00 0.00 0.00 81 1014.4
20260905124056 77 0 0.0 0.0 0.00 0.00 0.00 81 1014.4
20260905123557 77 0 0.0 0.0 0.00 0.00 0.00 80 1014.4
20260905123106 77 0 0.0 0.0 0.00 0.00 0.00 80 1014.4
20260905122556 77 0 0.0 0.0 0.00 0.00 0.00 80 1014.3
20260905122056 77 0 0.0 0.0 0.00 0.00 0.00 80 1014.2
20260905121605 77 0 0.0 1.0 0.00 0.00 0.00 80 1014.1
20260905121056 77 0 0.0 2.0 0.00 0.00 0.00 80 1014.2
20260905120555 77 0 0.0 2.0 0.00 0.00 0.00 80 1014.1
20260905120105 77 196 0.0 2.0 0.00 0.00 0.00 80 1014.1
20260905115559 77 196 0.0 2.0 0.00 0.00 0.00 80 1014.0
20260905115059 77 0 0.0 0.0 0.00 0.00 0.00 80 1014.0
20260905114628 77 0 0.0 0.0 0.00 0.00 0.00 80 1014.0
20260905114056 77 0 0.0 0.0 0.00 0.00 0.00 80 1013.8
20260905113556 77 0 0.0 0.0 0.00 0.00 0.00 79 1013.8
20260905113102 78 0 0.0 0.0 0.00 0.00 0.00 79 1013.9
20260905112556 78 0 0.0 0.0 0.00 0.00 0.00 79 1013.9
20260905112056 78 0 0.0 0.0 0.00 0.00 0.00 79 1014.0
20260905111600 78 0 0.0 0.0 0.00 0.00 0.00 79 1013.9
20260905111055 78 0 0.0 1.0 0.00 0.00 0.00 79 1013.9
20260905110556 78 0 0.0 1.0 0.00 0.00 0.00 79 1013.9
20260905110101 78 0 0.0 1.0 0.00 0.00 0.00 79 1013.8
20260905105555 78 0 0.0 1.0 0.00 0.00 0.00 78 1013.8
20260905105056 78 0 0.0 1.0 0.00 0.00 0.00 78 1013.6
20260905104604 78 0 0.0 2.0 0.00 0.00 0.00 78 1013.7
20260905104100 78 0 0.0 2.0 0.00 0.00 0.00 77 1013.7
20260905103559 78 0 0.0 1.0 0.00 0.00 0.00 77 1013.8
20260905103104 78 0 0.0 1.0 0.00 0.00 0.00 77 1013.7
20260905102555 78 0 0.0 2.0 0.00 0.00 0.00 77 1013.8
20260905102055 78 0 0.0 2.0 0.00 0.00 0.00 76 1013.8
20260905101603 78 196 0.0 0.0 0.00 0.00 0.00 75 1013.8
20260905101056 78 0 0.0 0.0 0.00 0.00 0.00 75 1013.8
20260905100555 78 0 0.0 0.0 0.00 0.00 0.00 74 1013.9
20260905100116 78 0 0.0 0.0 0.00 0.00 0.00 74 1013.8
20260905095556 78 0 0.0 0.0 0.00 0.00 0.00 74 1013.8
20260905095059 79 0 0.0 1.0 0.00 0.00 0.00 74 1013.8
20260905094620 79 0 0.0 1.0 0.00 0.00 0.00 74 1013.8
20260905094055 79 0 0.0 1.0 0.00 0.00 0.00 73 1013.8
20260905093556 79 0 0.0 1.0 0.00 0.00 0.00 73 1013.7
20260905093103 79 0 0.0 1.0 0.00 0.00 0.00 73 1013.6
20260905092555 79 0 0.0 1.0 0.00 0.00 0.00 73 1013.7
20260905092056 79 0 0.0 1.0 0.00 0.00 0.00 73 1013.8
20260905091615 80 0 0.0 1.0 0.00 0.00 0.00 73 1013.8
20260905091056 80 0 0.0 2.0 0.00 0.00 0.00 73 1013.7
20260905090556 80 0 0.0 3.0 0.00 0.00 0.00 73 1013.6
20260905090100 80 0 0.0 3.0 0.00 0.00 0.00 72 1013.6
20260905085557 80 197 1.0 3.0 0.00 0.00 0.00 72 1013.5
20260905085056 80 0 0.0 2.0 0.00 0.00 0.00 71 1013.5
20260905084602 80 0 0.0 1.0 0.00 0.00 0.00 71 1013.6
20260905084056 81 0 0.0 0.0 0.00 0.00 0.00 71 1013.5
20260905083558 81 0 0.0 0.0 0.00 0.00 0.00 70 1013.4
20260905083101 81 0 0.0 1.0 0.00 0.00 0.00 69 1013.4
20260905082555 81 0 0.0 1.0 0.00 0.00 0.00 69 1013.3
20260905082056 81 0 0.0 1.0 0.00 0.00 0.00 69 1013.3
20260905081603 82 0 0.0 1.0 0.00 0.00 0.00 68 1013.4
20260905081056 82 0 0.0 0.0 0.00 0.00 0.00 68 1013.4
20260905080556 82 0 0.0 0.0 0.00 0.00 0.00 68 1013.5
20260905075556 82 0 0.0 0.0 0.00 0.00 0.00 67 1013.6
20260905075055 83 0 0.0 0.0 0.00 0.00 0.00 67 1013.6
20260905074606 83 0 0.0 1.0 0.00 0.00 0.00 67 1013.6
20260905074058 83 0 0.0 3.0 0.00 0.00 0.00 67 1013.5
20260905073555 83 0 0.0 3.0 0.00 0.00 0.00 67 1013.6
20260905073110 83 0 0.0 4.0 0.00 0.00 0.00 67 1013.7
20260905072557 83 196 1.0 6.0 0.00 0.00 0.00 67 1013.7
20260905072056 83 184 1.0 6.0 0.00 0.00 0.00 67 1013.6
20260905071601 83 187 2.0 6.0 0.00 0.00 0.00 66 1013.7
20260905071059 83 0 1.0 5.0 0.00 0.00 0.00 66 1013.7
20260905070558 84 188 1.0 5.0 0.00 0.00 0.00 66 1013.7
20260905070105 84 0 1.0 5.0 0.00 0.00 0.00 66 1013.6
20260905065555 84 198 1.0 5.0 0.00 0.00 0.00 65 1013.8
20260905065058 84 195 0.0 5.0 0.00 0.00 0.00 65 1013.8
20260905064616 84 196 1.0 6.0 0.00 0.00 0.00 65 1013.8
20260905064055 84 0 1.0 6.0 0.00 0.00 0.00 65 1013.8
20260905063555 84 184 2.0 5.0 0.00 0.00 0.00 64 1014.0
20260905063110 84 191 1.0 4.0 0.00 0.00 0.00 64 1013.9
20260905062556 84 192 0.0 4.0 0.00 0.00 0.00 64 1013.9
20260905062056 85 193 1.0 4.0 0.00 0.00 0.00 63 1013.8
20260905061619 85 0 0.0 2.0 0.00 0.00 0.00 63 1013.9
20260905061058 85 0 0.0 3.0 0.00 0.00 0.00 63 1013.9
20260905060556 85 194 0.0 3.0 0.00 0.00 0.00 62 1013.9
20260905060109 85 0 0.0 3.0 0.00 0.00 0.00 62 1013.9
20260905055559 86 194 1.0 4.0 0.00 0.00 0.00 62 1013.9
20260905055056 86 0 1.0 6.0 0.00 0.00 0.00 62 1013.8
20260905054604 86 0 1.0 6.0 0.00 0.00 0.00 61 1013.7
20260905054056 86 184 2.0 6.0 0.00 0.00 0.00 61 1013.7
20260905053556 86 187 2.0 7.0 0.00 0.00 0.00 61 1013.7
20260905053104 86 193 2.0 7.0 0.00 0.00 0.00 61 1013.6
20260905052555 86 186 2.0 6.0 0.00 0.00 0.00 61 1013.5
20260905052056 86 191 1.0 5.0 0.00 0.00 0.00 60 1013.6
20260905051610 87 192 1.0 7.0 0.00 0.00 0.00 60 1013.5
20260905051055 87 196 1.0 7.0 0.00 0.00 0.00 60 1013.4
20260905050556 87 194 2.0 7.0 0.00 0.00 0.00 60 1013.4
20260905050109 87 199 2.0 6.0 0.00 0.00 0.00 59 1013.3
20260905045556 87 184 1.0 8.0 0.00 0.00 0.00 59 1013.4
20260905045056 87 191 2.0 8.0 0.00 0.00 0.00 59 1013.4
20260905044603 87 184 1.0 7.0 0.00 0.00 0.00 59 1013.5
20260905044101 87 216 0.0 5.0 0.00 0.00 0.00 58 1013.5
20260905043618 87 201 1.0 5.0 0.00 0.00 0.00 57 1013.5
20260905043106 88 195 1.0 5.0 0.00 0.00 0.00 56 1013.5
20260905042553 88 208 1.0 5.0 0.00 0.00 0.00 56 1013.5
20260905042054 88 207 0.0 5.0 0.00 0.00 0.00 55 1013.4
20260905041604 88 209 0.0 5.0 0.00 0.00 0.00 55 1013.4
20260905041054 88 148 0.0 2.0 0.00 0.00 0.00 54 1013.4
20260905040554 88 0 0.0 2.0 0.00 0.00 0.00 54 1013.3
20260905035554 88 156 0.0 5.0 0.00 0.00 0.00 53 1013.4
20260905035054 89 0 1.0 5.0 0.00 0.00 0.00 53 1013.4
20260905034611 89 165 1.0 7.0 0.00 0.00 0.00 53 1013.4
20260905034053 89 0 0.0 7.0 0.00 0.00 0.00 53 1013.4
20260905033554 89 0 1.0 7.0 0.00 0.00 0.00 53 1013.4
20260905033110 89 135 1.0 3.0 0.00 0.00 0.00 53 1013.3
20260905032557 89 155 0.0 3.0 0.00 0.00 0.00 53 1013.3
20260905032058 89 115 0.0 3.0 0.00 0.00 0.00 53 1013.2
20260905031616 89 0 0.0 3.0 0.00 0.00 0.00 53 1013.2
20260905031053 89 106 0.0 3.0 0.00 0.00 0.00 53 1013.2
20260905030554 90 0 0.0 3.0 0.00 0.00 0.00 53 1013.2
20260905030100 90 0 0.0 2.0 0.00 0.00 0.00 53 1013.2
20260905025553 90 199 0.0 3.0 0.00 0.00 0.00 52 1013.2
20260905025056 90 0 0.0 3.0 0.00 0.00 0.00 52 1013.1
20260905024602 90 167 1.0 4.0 0.00 0.00 0.00 52 1012.9
20260905024054 90 0 0.0 4.0 0.00 0.00 0.00 52 1012.8
20260905023553 90 0 0.0 5.0 0.00 0.00 0.00 52 1012.7
20260905023132 91 0 0.0 5.0 0.00 0.00 0.00 52 1012.8
20260905022555 91 144 0.0 3.0 0.00 0.00 0.00 52 1012.8
20260905022054 91 175 0.0 3.0 0.00 0.00 0.00 51 1012.7
20260905021601 91 183 0.0 4.0 0.00 0.00 0.00 51 1012.5
20260905021054 91 227 1.0 4.0 0.00 0.00 0.00 51 1012.4
20260905020556 91 175 1.0 6.0 0.00 0.00 0.00 51 1012.3
20260905020105 92 132 0.0 6.0 0.00 0.00 0.00 51 1012.2
20260905015554 92 196 1.0 6.0 0.00 0.00 0.00 51 1012.2
20260905015055 92 156 1.0 5.0 0.00 0.00 0.00 50 1012.1
20260905014616 92 125 0.0 4.0 0.00 0.00 0.00 50 1012.1
20260905014054 92 132 0.0 5.0 0.00 0.00 0.00 50 1012.1
20260905013600 93 0 1.0 5.0 0.00 0.00 0.00 50 1012.0
20260905013144 93 88 1.0 5.0 0.00 0.00 0.00 50 1011.9
20260905012556 93 0 1.0 4.0 0.00 0.00 0.00 49 1011.8
20260905012056 93 150 1.0 4.0 0.00 0.00 0.00 49 1011.8
20260905011607 94 0 0.0 3.0 0.00 0.00 0.00 48 1011.7
20260905011100 94 0 0.0 3.0 0.00 0.00 0.00 47 1011.7
20260905010556 94 0 0.0 3.0 0.00 0.00 0.00 47 1011.7
20260905010107 95 151 0.0 4.0 0.00 0.00 0.00 46 1011.7
20260905005555 95 149 1.0 4.0 0.00 0.00 0.00 46 1011.6
20260905005055 95 0 1.0 5.0 0.00 0.00 0.00 45 1011.4
20260905004603 96 138 1.0 5.0 0.00 0.00 0.00 44 1011.4
20260905004056 96 148 0.0 6.0 0.00 0.00 0.00 43 1011.4
20260905003559 97 221 1.0 6.0 0.00 0.00 0.00 43 1011.4
20260905003103 97 95 1.0 6.0 0.00 0.00 0.00 42 1011.3
20260905002555 97 82 1.0 6.0 0.00 0.00 0.00 42 1011.2
20260905002057 98 68 1.0 6.0 0.00 0.00 0.00 42 1011.2
20260905001611 98 140 1.0 5.0 0.00 0.00 0.00 41 1011.2
20260905001055 98 88 1.0 5.0 0.00 0.00 0.00 41 1011.1
20260905000556 98 123 0.0 4.0 0.00 0.00 0.00 41 1011.1
20260905000121 99 96 1.0 7.0 0.00 0.00 0.00 40 1011.0
20260904235555 99 0 1.0 7.0 0.00 0.00 0.00 40 1011.0
20260904235057 99 193 2.0 7.0 0.00 0.00 0.00 40 1011.0
20260904234606 99 89 1.0 7.0 0.00 0.00 0.00 40 1011.0
20260904234056 99 126 2.0 7.0 0.00 0.00 0.00 40 1010.9
20260904233556 99 94 1.0 7.0 0.00 0.00 0.00 39 1011.0
20260904233105 100 105 1.0 7.0 0.00 0.00 0.00 39 1011.0
20260904232556 100 125 2.0 7.0 0.00 0.00 0.00 39 1011.0
20260904232101 100 87 2.0 6.0 0.00 0.00 0.00 39 1011.0
20260904231605 101 111 0.0 6.0 0.00 0.00 0.00 39 1011.1
20260904231056 101 193 1.0 7.0 0.00 0.00 0.00 39 1011.1
20260904230556 101 150 2.0 9.0 0.00 0.00 0.00 39 1011.1
20260904230101 101 85 2.0 9.0 0.00 0.00 0.00 39 1011.1
20260904225555 102 111 1.0 5.0 0.00 0.00 0.00 39 1011.1
20260904225057 102 326 2.0 5.0 0.00 0.00 0.00 39 1011.2
20260904224607 102 197 1.0 5.0 0.00 0.00 0.00 39 1011.1
20260904224059 102 134 1.0 5.0 0.00 0.00 0.00 39 1011.1
20260904223557 102 205 2.0 8.0 0.00 0.00 0.00 39 1011.2
20260904223102 101 84 1.0 8.0 0.00 0.00 0.00 40 1011.3
20260904222556 101 123 1.0 7.0 0.00 0.00 0.00 39 1011.2
20260904222056 102 213 1.0 7.0 0.00 0.00 0.00 39 1011.3
20260904221605 102 151 1.0 6.0 0.00 0.00 0.00 38 1011.3
20260904221059 103 79 1.0 6.0 0.00 0.00 0.00 38 1011.3
20260904220556 103 0 2.0 6.0 0.00 0.00 0.00 38 1011.3
20260904220119 103 104 1.0 11.0 0.00 0.00 0.00 38 1011.3
20260904215556 103 82 2.0 11.0 0.00 0.00 0.00 38 1011.5
20260904215056 103 204 3.0 8.0 0.00 0.00 0.00 38 1011.6
20260904214607 102 195 3.0 11.0 0.00 0.00 0.00 38 1011.7
20260904214056 102 0 2.0 11.0 0.00 0.00 0.00 38 1011.7
20260904213556 102 169 3.0 8.0 0.00 0.00 0.00 39 1011.7
20260904213104 102 105 2.0 7.0 0.00 0.00 0.00 40 1011.7
20260904212555 103 283 1.0 8.0 0.00 0.00 0.00 38 1011.7
20260904212057 103 112 2.0 8.0 0.00 0.00 0.00 39 1011.7
20260904211608 103 61 2.0 10.0 0.00 0.00 0.00 38 1011.8
20260904211056 103 332 1.0 10.0 0.00 0.00 0.00 38 1011.8
20260904210556 104 242 3.0 10.0 0.00 0.00 0.00 39 1011.9
20260904210119 103 175 0.0 6.0 0.00 0.00 0.00 40 1012.0
20260904205557 103 146 2.0 9.0 0.00 0.00 0.00 40 1012.1
20260904205056 103 107 2.0 9.0 0.00 0.00 0.00 40 1012.2
20260904204604 103 96 1.0 10.0 0.00 0.00 0.00 39 1012.2
20260904204057 104 194 4.0 10.0 0.00 0.00 0.00 39 1012.2
20260904203556 104 198 2.0 7.0 0.00 0.00 0.00 39 1012.3
20260904203100 103 0 2.0 9.0 0.00 0.00 0.00 39 1012.4
20260904202556 103 134 2.0 12.0 0.00 0.00 0.00 38 1012.4
20260904202100 103 223 4.0 12.0 0.00 0.00 0.00 39 1012.5
20260904201606 103 232 2.0 9.0 0.00 0.00 0.00 39 1012.5
20260904201056 103 80 2.0 10.0 0.00 0.00 0.00 38 1012.7
20260904200556 103 184 3.0 12.0 0.00 0.00 0.00 38 1012.8
20260904195557 103 219 1.0 7.0 0.00 0.00 0.00 40 1013.0
20260904195056 102 178 2.0 6.0 0.00 0.00 0.00 41 1012.9
20260904194609 102 86 2.0 12.0 0.00 0.00 0.00 41 1012.9
20260904194056 102 0 2.0 12.0 0.00 0.00 0.00 41 1012.9
20260904193556 101 284 2.0 9.0 0.00 0.00 0.00 42 1013.0
20260904193115 101 229 3.0 11.0 0.00 0.00 0.00 42 1013.1
20260904192556 100 181 4.0 11.0 0.00 0.00 0.00 42 1013.1
20260904192055 100 225 2.0 10.0 0.00 0.00 0.00 43 1013.1
20260904191601 99 206 3.0 10.0 0.00 0.00 0.00 43 1013.2
20260904191056 98 202 3.0 9.0 0.00 0.00 0.00 44 1013.2
20260904190556 98 145 2.0 7.0 0.00 0.00 0.00 46 1013.3
20260904185559 98 85 2.0 12.0 0.00 0.00 0.00 46 1013.6
20260904185100 99 105 2.0 7.0 0.00 0.00 0.00 46 1013.6
20260904184616 99 46 2.0 8.0 0.00 0.00 0.00 47 1013.6
20260904184056 98 103 3.0 8.0 0.00 0.00 0.00 46 1013.8
20260904183556 98 230 1.0 7.0 0.00 0.00 0.00 45 1013.9
20260904183100 98 220 1.0 11.0 0.00 0.00 0.00 44 1013.9
20260904182556 97 180 2.0 11.0 0.00 0.00 0.00 43 1014.0
20260904182055 98 200 3.0 9.0 0.00 0.00 0.00 41 1014.0
20260904181610 98 54 3.0 9.0 0.00 0.00 0.00 44 1014.1
20260904181055 97 0 3.0 11.0 0.00 0.00 0.00 47 1014.1
20260904180556 96 194 4.0 11.0 0.00 0.00 0.00 46 1014.1
20260904180118 95 186 3.0 9.0 0.00 0.00 0.00 46 1014.2
20260904175558 95 200 2.0 8.0 0.00 0.00 0.00 47 1014.3
20260904175056 95 213 4.0 12.0 0.00 0.00 0.00 46 1014.3
20260904174617 95 196 4.0 12.0 0.00 0.00 0.00 47 1014.3
20260904174055 95 171 3.0 8.0 0.00 0.00 0.00 47 1014.4
20260904173557 95 110 2.0 8.0 0.00 0.00 0.00 49 1014.4
20260904173102 95 205 2.0 12.0 0.00 0.00 0.00 51 1014.6
20260904172557 95 182 3.0 12.0 0.00 0.00 0.00 49 1014.6
20260904172056 95 121 2.0 11.0 0.00 0.00 0.00 51 1014.6
20260904171605 95 111 4.0 11.0 0.00 0.00 0.00 50 1014.7
20260904171056 96 185 2.0 10.0 0.00 0.00 0.00 50 1014.7
20260904170556 96 192 3.0 10.0 0.00 0.00 0.00 50 1014.7
20260904170101 96 171 3.0 10.0 0.00 0.00 0.00 51 1014.7
20260904165557 96 190 3.0 10.0 0.00 0.00 0.00 52 1014.9
20260904165056 95 170 2.0 10.0 0.00 0.00 0.00 52 1015.0
20260904164602 95 208 4.0 10.0 0.00 0.00 0.00 53 1015.1
20260904164055 94 183 3.0 11.0 0.00 0.00 0.00 54 1015.0
20260904163556 94 240 2.0 11.0 0.00 0.00 0.00 55 1015.0
20260904163110 92 180 3.0 11.0 0.00 0.00 0.00 56 1015.0
20260904162557 91 185 2.0 10.0 0.00 0.00 0.00 60 1015.0
20260904162056 90 190 2.0 8.0 0.00 0.00 0.00 61 1015.0
20260904161602 89 230 4.0 12.0 0.00 0.00 0.00 59 1015.0
20260904161057 90 217 3.0 12.0 0.00 0.00 0.00 58 1015.1
20260904160555 90 247 5.0 11.0 0.00 0.00 0.00 59 1015.1
20260904160105 90 188 4.0 10.0 0.00 0.00 0.00 61 1015.0
20260904155600 90 183 3.0 10.0 0.00 0.00 0.00 61 1014.9
20260904155059 89 165 3.0 12.0 0.00 0.00 0.00 61 1014.9
20260904154604 89 202 4.0 12.0 0.00 0.00 0.00 62 1015.0
20260904154058 88 219 3.0 10.0 0.00 0.00 0.00 65 1015.0
20260904153556 88 209 3.0 12.0 0.00 0.00 0.00 65 1015.0
20260904153124 88 179 3.0 13.0 0.00 0.00 0.00 66 1014.9
20260904152555 87 179 3.0 13.0 0.00 0.00 0.00 66 1015.0
20260904152056 87 178 4.0 11.0 0.00 0.00 0.00 67 1014.9
20260904151603 87 219 4.0 11.0 0.00 0.00 0.00 68 1014.9
20260904151056 86 209 4.0 10.0 0.00 0.00 0.00 70 1014.9
20260904150556 85 240 2.0 9.0 0.00 0.00 0.00 73 1014.8
20260904145556 84 184 2.0 9.0 0.00 0.00 0.00 74 1014.9
20260904145056 84 201 3.0 8.0 0.00 0.00 0.00 75 1015.0
20260904144602 84 0 1.0 6.0 0.00 0.00 0.00 76 1014.8
20260904144055 84 204 2.0 6.0 0.00 0.00 0.00 77 1014.8
20260904143555 83 212 0.0 5.0 0.00 0.00 0.00 79 1014.7
20260904143106 82 0 1.0 6.0 0.00 0.00 0.00 79 1014.7
20260904142559 82 186 1.0 6.0 0.00 0.00 0.00 79 1014.6
20260904142057 82 96 1.0 6.0 0.00 0.00 0.00 80 1014.7
20260904141610 82 163 2.0 6.0 0.00 0.00 0.00 81 1014.6
20260904141056 82 0 1.0 6.0 0.00 0.00 0.00 81 1014.6
20260904140556 81 143 1.0 7.0 0.00 0.00 0.00 82 1014.6
20260904140104 81 186 2.0 7.0 0.00 0.00 0.00 82 1014.6
20260904135556 81 132 1.0 7.0 0.00 0.00 0.00 82 1014.6
20260904135056 81 170 1.0 5.0 0.00 0.00 0.00 83 1014.6
20260904134606 80 168 1.0 5.0 0.00 0.00 0.00 84 1014.6
20260904134056 80 164 1.0 5.0 0.00 0.00 0.00 84 1014.5